• In Netherlands
  • List of Countries
  • For 7 days
  • Water Temperature
  • Satellite Maps
  • Weather Map
  • Weather Widgets
  • user-avatar
    Login

    Hourly Weather Ischgl

    Today, 29 June, Thursday

    Time Temperature Precipitation Wind Pressure Humidity
    00:00 +5°C° 0.5 mm 1 mps 566 mmHg 96%
    01:00 +5°C° 0 mm 1 mps 565 mmHg 97%
    02:00 +5°C° 0.5 mm 1 mps 565 mmHg 97%
    03:00 +4°C° 0.5 mm 1 mps 565 mmHg 97%
    04:00 +4°C° 0.5 mm 1 mps 565 mmHg 97%
    05:00 +5°C° 0.7 mm 1 mps 566 mmHg 96%
    06:00 +5°C° 0.7 mm 1 mps 566 mmHg 95%
    07:00 +5°C° 0.7 mm 1 mps 566 mmHg 93%
    08:00 +6°C° 0.9 mm 1 mps 567 mmHg 91%
    09:00 +6°C° 0.9 mm 1 mps 567 mmHg 89%
    10:00 +7°C° 0.9 mm 1 mps 567 mmHg 87%
    11:00 +7°C° 0.8 mm 1 mps 568 mmHg 85%
    12:00 +8°C° 0.8 mm 1 mps 568 mmHg 83%
    13:00 +8°C° 0.8 mm 2 mps 569 mmHg 81%
    14:00 +8°C° 1.3 mm 2 mps 568 mmHg 82%
    15:00 +7°C° 1.3 mm 2 mps 568 mmHg 83%
    16:00 +7°C° 1.3 mm 2 mps 568 mmHg 84%
    17:00 +6°C° 1.6 mm 2 mps 568 mmHg 87%
    18:00 +5°C° 1.6 mm 2 mps 568 mmHg 90%
    19:00 +4°C° 1.6 mm 2 mps 568 mmHg 93%
    20:00 +4°C° 1.2 mm 1 mps 568 mmHg 94%
    21:00 +4°C° 1.2 mm 1 mps 568 mmHg 95%
    22:00 +3°C° 1.2 mm 1 mps 568 mmHg 97%
    23:00 +3°C° 1.3 mm 1 mps 568 mmHg 97%

    Tomorrow, 30 June, Friday

    Time Temperature Precipitation Wind Pressure Humidity
    00:00 +3°C° 1.3 mm 1 mps 568 mmHg 97%
    01:00 +3°C° 1.3 mm 1 mps 568 mmHg 96%
    02:00 +2°C° 0.6 mm 1 mps 568 mmHg 96%
    03:00 +1°C° 0.6 mm 1 mps 568 mmHg 96%
    04:00 0°C° 0.6 mm 0 mps 568 mmHg 96%
    05:00 +2°C° 0.1 mm 1 mps 568 mmHg 94%
    06:00 +3°C° 0.1 mm 1 mps 569 mmHg 92%
    07:00 +4°C° 0.1 mm 1 mps 570 mmHg 90%
    08:00 +6°C° 0.2 mm 1 mps 571 mmHg 83%
    09:00 +6°C° 0.2 mm 2 mps 571 mmHg 76%
    10:00 +7°C° 0.2 mm 2 mps 572 mmHg 69%
    11:00 +8°C° 0.7 mm 2 mps 572 mmHg 69%
    12:00 +8°C° 0.7 mm 2 mps 573 mmHg 68%
    13:00 +8°C° 0.7 mm 2 mps 573 mmHg 68%
    14:00 +8°C° 0.8 mm 2 mps 573 mmHg 69%
    15:00 +8°C° 0.8 mm 2 mps 573 mmHg 70%
    16:00 +8°C° 0.8 mm 2 mps 573 mmHg 72%
    17:00 +7°C° 0.7 mm 2 mps 572 mmHg 76%
    18:00 +7°C° 0.7 mm 1 mps 572 mmHg 81%
    19:00 +6°C° 0.7 mm 1 mps 572 mmHg 86%
    20:00 +4°C° 0.4 mm 1 mps 571 mmHg 89%
    21:00 +2°C° 0.4 mm 1 mps 570 mmHg 92%
    22:00 -1°C° 0.4 mm 0 mps 569 mmHg 96%
    23:00 -1°C° 0.1 mm 0 mps 569 mmHg 96%

    Day after tomorrow, 1 July, Saturday

    Time Temperature Precipitation Wind Pressure Humidity
    00:00 -1°C° 0.1 mm 0 mps 569 mmHg 95%
    01:00 -1°C° 0.1 mm 0 mps 569 mmHg 95%
    02:00 -1°C° 0.1 mm 0 mps 569 mmHg 95%
    03:00 -2°C° 0.1 mm 0 mps 569 mmHg 95%
    04:00 -2°C° 0.1 mm 0 mps 569 mmHg 95%
    05:00 0°C° 0 mm 0 mps 570 mmHg 91%
    06:00 +3°C° 0 mm 1 mps 571 mmHg 86%
    07:00 +5°C° 0 mm 1 mps 572 mmHg 82%
    08:00 +6°C° 0.1 mm 1 mps 573 mmHg 76%
    09:00 +8°C° 0.1 mm 1 mps 574 mmHg 69%
    10:00 +9°C° 0.1 mm 1 mps 575 mmHg 63%
    11:00 +9°C° 0.4 mm 1 mps 575 mmHg 65%
    12:00 +8°C° 0.4 mm 2 mps 575 mmHg 66%
    13:00 +9°C° 0.4 mm 2 mps 575 mmHg 68%
    14:00 +8°C° 0.6 mm 2 mps 575 mmHg 72%
    15:00 +7°C° 0.6 mm 2 mps 575 mmHg 77%
    16:00 +7°C° 0.6 mm 2 mps 574 mmHg 81%
    17:00 +6°C° 0.8 mm 2 mps 574 mmHg 85%
    18:00 +5°C° 0.8 mm 2 mps 574 mmHg 89%
    19:00 +5°C° 0.8 mm 2 mps 574 mmHg 93%
    20:00 +5°C° 0.5 mm 1 mps 574 mmHg 94%
    21:00 +4°C° 0.5 mm 1 mps 574 mmHg 96%
    22:00 +3°C° 0.5 mm 1 mps 574 mmHg 97%
    23:00 +3°C° 0.1 mm 1 mps 574 mmHg 97%

    2 July, Sunday

    Time Temperature Precipitation Wind Pressure Humidity
    00:00 +3°C° 0.1 mm 1 mps 574 mmHg 97%
    01:00 +2°C° 0.1 mm 1 mps 573 mmHg 97%
    02:00 +2°C° 0.1 mm 1 mps 573 mmHg 97%
    03:00 +2°C° 0.1 mm 1 mps 573 mmHg 98%
    04:00 +2°C° 0.1 mm 1 mps 573 mmHg 98%
    05:00 +2°C° 0.4 mm 1 mps 574 mmHg 97%
    06:00 +3°C° 0.4 mm 1 mps 575 mmHg 96%
    07:00 +4°C° 0.4 mm 1 mps 575 mmHg 95%
    08:00 +4°C° 0.4 mm 2 mps 576 mmHg 92%
    09:00 +4°C° 0.4 mm 2 mps 576 mmHg 89%
    10:00 +5°C° 0.4 mm 2 mps 577 mmHg 87%
    11:00 +6°C° 0.1 mm 2 mps 578 mmHg 81%
    12:00 +7°C° 0.1 mm 2 mps 578 mmHg 76%
    13:00 +9°C° 0.1 mm 2 mps 579 mmHg 71%
    14:00 +9°C° 0.1 mm 2 mps 579 mmHg 69%
    15:00 +9°C° 0.1 mm 2 mps 579 mmHg 66%
    16:00 +10°C° 0.1 mm 2 mps 579 mmHg 64%
    17:00 +9°C° 0 mm 2 mps 579 mmHg 70%
    18:00 +8°C° 0 mm 2 mps 579 mmHg 76%
    19:00 +7°C° 0 mm 2 mps 579 mmHg 81%
    20:00 +5°C° 0 mm 2 mps 578 mmHg 86%
    21:00 +5°C° 0 mm 1 mps 578 mmHg 91%
    22:00 +4°C° 0 mm 1 mps 578 mmHg 96%
    23:00 +3°C° 0 mm 1 mps 578 mmHg 97%

    3 July, Monday

    Time Temperature Precipitation Wind Pressure Humidity
    00:00 +3°C° 0 mm 1 mps 577 mmHg 97%
    01:00 +3°C° 0 mm 1 mps 577 mmHg 97%
    02:00 +3°C° 0 mm 1 mps 577 mmHg 97%
    03:00 +2°C° 0 mm 1 mps 577 mmHg 97%
    04:00 +2°C° 0 mm 1 mps 577 mmHg 97%
    05:00 +4°C° 0 mm 1 mps 578 mmHg 93%
    06:00 +5°C° 0 mm 1 mps 579 mmHg 89%
    07:00 +6°C° 0 mm 1 mps 579 mmHg 85%
    08:00 +8°C° 0 mm 1 mps 580 mmHg 78%
    09:00 +10°C° 0 mm 1 mps 581 mmHg 71%
    10:00 +11°C° 0 mm 1 mps 582 mmHg 64%
    11:00 +13°C° 0 mm 1 mps 582 mmHg 59%
    12:00 +14°C° 0 mm 1 mps 582 mmHg 54%
    13:00 +15°C° 0 mm 2 mps 583 mmHg 49%
    14:00 +15°C° 0 mm 2 mps 583 mmHg 50%
    15:00 +14°C° 0 mm 2 mps 582 mmHg 51%
    16:00 +14°C° 0 mm 2 mps 582 mmHg 52%
    17:00 +13°C° 0 mm 2 mps 581 mmHg 62%
    18:00 +12°C° 0 mm 2 mps 581 mmHg 71%
    19:00 +10°C° 0 mm 1 mps 580 mmHg 80%
    20:00 +8°C° 0 mm 1 mps 579 mmHg 86%
    21:00 +6°C° 0 mm 1 mps 578 mmHg 92%
    22:00 +3°C° 0 mm 1 mps 577 mmHg 98%
    23:00 +3°C° 0 mm 1 mps 577 mmHg 97%

    4 July, Tuesday

    Time Temperature Precipitation Wind Pressure Humidity
    00:00 +3°C° 0 mm 1 mps 577 mmHg 97%
    01:00 +3°C° 0 mm 1 mps 577 mmHg 97%
    02:00 +2°C° 0 mm 1 mps 576 mmHg 96%
    03:00 +2°C° 0 mm 1 mps 576 mmHg 94%
    04:00 +2°C° 0 mm 1 mps 576 mmHg 93%
    05:00 +4°C° 0 mm 1 mps 577 mmHg 86%
    06:00 +7°C° 0 mm 1 mps 578 mmHg 79%
    07:00 +9°C° 0 mm 1 mps 580 mmHg 71%
    08:00 +11°C° 0 mm 1 mps 581 mmHg 61%
    09:00 +14°C° 0 mm 1 mps 582 mmHg 51%
    10:00 +16°C° 0 mm 1 mps 583 mmHg 42%
    11:00 +18°C° 0 mm 1 mps 583 mmHg 41%
    12:00 +19°C° 0 mm 1 mps 583 mmHg 40%
    13:00 +19°C° 0 mm 1 mps 583 mmHg 39%
    14:00 +19°C° 0.1 mm 1 mps 583 mmHg 43%
    15:00 +18°C° 0.1 mm 1 mps 582 mmHg 47%
    16:00 +18°C° 0.1 mm 1 mps 582 mmHg 51%
    17:00 +15°C° 0.3 mm 1 mps 581 mmHg 61%
    18:00 +14°C° 0.3 mm 1 mps 580 mmHg 72%
    19:00 +12°C° 0.3 mm 1 mps 580 mmHg 82%
    20:00 +10°C° 0.2 mm 1 mps 578 mmHg 86%
    21:00 +8°C° 0.2 mm 1 mps 577 mmHg 90%
    22:00 +6°C° 0.2 mm 1 mps 576 mmHg 94%
    23:00 +6°C° 0.1 mm 1 mps 576 mmHg 94%
    Show more